Location: Newark
(43.0000°N, 1.6781°W)
Time: 16:14:44
(UTC+00:00)

Tiros 1 despin weight - All Passes

Search period start: 24 September 2022 00:00
Search period end: 04 October 2022 00:00
Orbit: 590 x 639 km, 48.2° (Epoch: 23 September)

Date Brightness Start Highest point End Pass type
(mag) Time Alt. Az. Time Alt. Az. Time Alt. Az.
24 Sep - 00:27:50 10° WNW 00:32:31 82° NNE 00:37:12 10° ESE night (unlit)
24 Sep - 02:09:47 10° W 02:13:42 27° SW 02:17:36 10° SSE night (unlit)
24 Sep - 17:58:14 10° S 18:01:26 19° SE 18:04:41 10° E daylight
24 Sep - 19:37:51 10° WSW 19:42:24 81° SSE 19:47:04 10° ENE visible
24 Sep - 21:19:44 10° W 21:24:11 46° N 21:28:42 10° ENE visible
24 Sep - 23:01:43 10° WNW 23:06:16 50° NNE 23:10:49 10° E night (unlit)
25 Sep - 00:43:17 10° WNW 00:47:55 65° SSW 00:52:32 10° SE night (unlit)
25 Sep - 02:26:11 10° W 02:28:46 15° SW 02:31:22 10° SSW night (unlit)
25 Sep - 18:12:28 10° SSW 18:16:33 34° SE 18:20:44 10° ENE daylight
25 Sep - 19:53:18 10° WSW 19:57:52 69° NNW 20:02:31 10° ENE visible
25 Sep - 21:35:24 10° WNW 21:39:50 43° N 21:44:18 10° ENE visible
25 Sep - 23:17:10 10° WNW 23:21:49 65° NNE 23:26:29 10° ESE night (unlit)
26 Sep - 00:58:52 10° WNW 01:03:12 38° SW 01:07:32 10° SSE night (unlit)
26 Sep - 16:49:10 10° SSE 16:51:04 12° SE 16:52:58 10° ESE daylight
26 Sep - 18:27:21 10° SW 18:31:49 59° SSE 18:36:21 10° ENE visible
26 Sep - 20:08:56 10° W 20:13:24 52° NNW 20:17:58 10° ENE visible
26 Sep - 21:51:01 10° WNW 21:55:28 45° N 21:59:58 10° E visible
26 Sep - 23:32:36 10° WNW 23:37:17 87° SSW 23:41:58 10° ESE night (unlit)
27 Sep - 01:14:46 10° W 01:18:21 22° SW 01:21:56 10° S night (unlit)
27 Sep - 17:02:32 10° S 17:06:05 23° SE 17:09:42 10° E daylight
27 Sep - 18:42:38 10° WSW 18:47:11 88° NNW 18:51:49 10° ENE visible
27 Sep - 20:24:36 10° W 20:29:01 44° N 20:33:29 10° ENE visible
27 Sep - 22:06:31 10° WNW 22:11:04 54° NNE 22:15:40 10° E visible
27 Sep - 23:48:05 10° WNW 23:52:38 55° SSW 23:57:12 10° SE night (unlit)
28 Sep - 01:31:46 10° WSW 01:33:23 12° SW 01:34:59 10° SSW night (unlit)
28 Sep - 17:17:01 10° SSW 17:21:15 41° SE 17:25:33 10° ENE daylight
28 Sep - 18:58:09 10° W 19:02:39 62° NNW 19:07:15 10° ENE visible
28 Sep - 20:40:15 10° WNW 20:44:39 43° N 20:49:06 10° ENE visible
28 Sep - 22:21:56 10° WNW 22:26:35 73° NNE 22:31:16 10° ESE visible
29 Sep - 00:03:44 10° WNW 00:07:52 32° SW 00:12:00 10° SSE night (unlit)
29 Sep - 15:53:01 10° S 15:55:40 16° SE 15:58:21 10° E daylight
29 Sep - 17:32:03 10° SW 17:36:32 70° SSE 17:41:06 10° ENE daylight
29 Sep - 19:13:48 10° W 19:18:13 48° N 19:22:43 10° ENE visible
29 Sep - 20:55:49 10° WNW 21:00:17 47° N 21:04:47 10° E visible
29 Sep - 22:37:22 10° WNW 22:42:01 75° SSW 22:46:40 10° SE night (unlit)
30 Sep - 00:19:51 10° W 00:22:58 18° SW 00:26:06 10° S night (unlit)
30 Sep - 16:06:54 10° SSW 16:10:44 28° SE 16:14:38 10° E daylight
30 Sep - 17:47:25 10° WSW 17:51:56 77° NNW 17:56:32 10° ENE daylight
30 Sep - 19:29:27 10° WNW 19:33:50 43° N 19:38:15 10° ENE visible
30 Sep - 21:11:16 10° WNW 21:15:50 59° NNE 21:20:26 10° E visible
30 Sep - 22:52:53 10° WNW 22:57:19 45° SW 23:01:46 10° SE night (unlit)
01 Oct - 16:21:37 10° SW 16:25:55 50° SE 16:30:20 10° ENE daylight
01 Oct - 18:02:59 10° W 18:07:26 56° NNW 18:11:58 10° ENE daylight
01 Oct - 19:45:04 10° WNW 19:49:27 44° N 19:53:54 10° ENE visible
01 Oct - 21:26:42 10° WNW 21:31:19 83° NNE 21:35:59 10° ESE visible
01 Oct - 23:08:38 10° W 23:12:29 26° SW 23:16:21 10° SSE night (unlit)
02 Oct - 14:57:06 10° S 15:00:16 19° SE 15:03:28 10° E daylight
02 Oct - 16:36:46 10° WSW 16:41:14 82° SSE 16:45:48 10° ENE daylight
02 Oct - 18:18:38 10° W 18:23:00 46° N 18:27:26 10° ENE visible
02 Oct - 20:00:35 10° WNW 20:05:03 50° NNE 20:09:34 10° E visible
02 Oct - 21:42:07 10° WNW 21:46:42 64° SSW 21:51:18 10° SE visible
02 Oct - 23:25:04 10° W 23:27:33 14° SW 23:30:01 10° SSW night (unlit)
03 Oct - 15:11:21 10° SSW 15:15:22 34° SE 15:19:28 10° ENE daylight
03 Oct - 16:52:12 10° WSW 16:56:40 68° NNW 17:01:14 10° ENE daylight
03 Oct - 18:34:17 10° WNW 18:38:37 43° N 18:43:01 10° ENE visible
03 Oct - 20:16:00 10° WNW 20:20:35 66° NNE 20:25:12 10° ESE visible
03 Oct - 21:57:41 10° WNW 22:01:57 37° SW 22:06:14 10° SSE visible
